• In Hungary
  • List of Countries
  • For 7 days
  • Water Temperature
  • Satellite Maps
  • Weather Map
  • News
  • Weather Widgets
  • user-avatar
    Login

    Hourly Weather El Guna

    Today, 14 November, Wednesday

    Time Temperature Precipitation Wind Pressure Humidity
    00:00 +19°C° 0 mm 3 mps 732 mmHg 49%
    01:00 +19°C° 0 mm 3 mps 732 mmHg 51%
    02:00 +18°C° 0 mm 3 mps 731 mmHg 52%
    03:00 +18°C° 0 mm 3 mps 731 mmHg 53%
    04:00 +18°C° 0 mm 3 mps 731 mmHg 55%
    05:00 +17°C° 0 mm 3 mps 731 mmHg 56%
    06:00 +18°C° 0 mm 3 mps 731 mmHg 53%
    07:00 +19°C° 0 mm 3 mps 731 mmHg 51%
    08:00 +20°C° 0 mm 4 mps 731 mmHg 47%
    09:00 +21°C° 0 mm 4 mps 731 mmHg 43%
    10:00 +22°C° 0 mm 4 mps 731 mmHg 40%
    11:00 +23°C° 0 mm 4 mps 732 mmHg 36%
    12:00 +25°C° 0 mm 4 mps 731 mmHg 36%
    13:00 +25°C° 0 mm 5 mps 731 mmHg 36%
    14:00 +25°C° 0 mm 5 mps 731 mmHg 35%
    15:00 +23°C° 0.5 mm 5 mps 731 mmHg 39%
    16:00 +22°C° 0.5 mm 5 mps 731 mmHg 43%
    17:00 +22°C° 0.5 mm 5 mps 731 mmHg 46%
    18:00 +21°C° 0.2 mm 5 mps 731 mmHg 49%
    19:00 +20°C° 0.2 mm 4 mps 731 mmHg 52%
    20:00 +19°C° 0.2 mm 4 mps 732 mmHg 55%
    21:00 +19°C° 0 mm 3 mps 732 mmHg 57%
    22:00 +19°C° 0 mm 3 mps 732 mmHg 59%
    23:00 +18°C° 0 mm 3 mps 732 mmHg 60%

    Tomorrow, 15 November, Thursday

    Time Temperature Precipitation Wind Pressure Humidity
    00:00 +18°C° 0.1 mm 3 mps 732 mmHg 62%
    01:00 +17°C° 0.1 mm 3 mps 732 mmHg 63%
    02:00 +17°C° 0.1 mm 3 mps 732 mmHg 64%
    03:00 +17°C° 0.4 mm 3 mps 732 mmHg 65%
    04:00 +17°C° 0.4 mm 2 mps 732 mmHg 65%
    05:00 +17°C° 0.4 mm 2 mps 732 mmHg 66%
    06:00 +17°C° 0.1 mm 3 mps 732 mmHg 63%
    07:00 +18°C° 0.1 mm 3 mps 733 mmHg 60%
    08:00 +19°C° 0.1 mm 3 mps 733 mmHg 56%
    09:00 +20°C° 0 mm 3 mps 733 mmHg 51%
    10:00 +21°C° 0 mm 4 mps 733 mmHg 46%
    11:00 +22°C° 0 mm 4 mps 733 mmHg 41%
    12:00 +23°C° 0 mm 4 mps 733 mmHg 39%
    13:00 +23°C° 0 mm 4 mps 733 mmHg 37%
    14:00 +25°C° 0 mm 4 mps 733 mmHg 35%
    15:00 +23°C° 0 mm 4 mps 733 mmHg 37%
    16:00 +23°C° 0 mm 4 mps 733 mmHg 40%
    17:00 +22°C° 0 mm 4 mps 733 mmHg 42%
    18:00 +22°C° 0 mm 4 mps 733 mmHg 46%
    19:00 +21°C° 0 mm 4 mps 734 mmHg 50%
    20:00 +20°C° 0 mm 3 mps 734 mmHg 55%
    21:00 +20°C° 0 mm 3 mps 734 mmHg 56%
    22:00 +19°C° 0 mm 3 mps 735 mmHg 58%
    23:00 +19°C° 0 mm 3 mps 735 mmHg 59%

    Day after tomorrow, 16 November, Friday

    Time Temperature Precipitation Wind Pressure Humidity
    00:00 +19°C° 0 mm 3 mps 735 mmHg 59%
    01:00 +18°C° 0 mm 2 mps 735 mmHg 60%
    02:00 +18°C° 0 mm 2 mps 735 mmHg 60%
    03:00 +18°C° 0 mm 2 mps 735 mmHg 60%
    04:00 +17°C° 0 mm 2 mps 735 mmHg 61%
    05:00 +17°C° 0 mm 2 mps 735 mmHg 62%
    06:00 +18°C° 0 mm 2 mps 736 mmHg 59%
    07:00 +18°C° 0 mm 2 mps 736 mmHg 56%
    08:00 +19°C° 0 mm 2 mps 737 mmHg 53%
    09:00 +20°C° 0 mm 2 mps 737 mmHg 50%
    10:00 +21°C° 0 mm 2 mps 737 mmHg 47%
    11:00 +23°C° 0 mm 2 mps 737 mmHg 44%
    12:00 +24°C° 0 mm 2 mps 737 mmHg 41%
    13:00 +25°C° 0 mm 2 mps 736 mmHg 38%
    14:00 +25°C° 0 mm 2 mps 736 mmHg 35%
    15:00 +25°C° 0 mm 3 mps 736 mmHg 38%
    16:00 +24°C° 0 mm 3 mps 736 mmHg 41%
    17:00 +22°C° 0 mm 3 mps 736 mmHg 43%
    18:00 +22°C° 0 mm 3 mps 737 mmHg 48%
    19:00 +21°C° 0 mm 3 mps 737 mmHg 53%
    20:00 +20°C° 0 mm 3 mps 737 mmHg 57%
    21:00 +20°C° 0 mm 3 mps 737 mmHg 60%
    22:00 +19°C° 0 mm 2 mps 737 mmHg 63%
    23:00 +19°C° 0 mm 2 mps 737 mmHg 66%

    17 November, Saturday

    Time Temperature Precipitation Wind Pressure Humidity
    00:00 +18°C° 0 mm 2 mps 737 mmHg 67%
    01:00 +18°C° 0 mm 2 mps 737 mmHg 67%
    02:00 +18°C° 0 mm 2 mps 737 mmHg 68%
    03:00 +17°C° 0 mm 2 mps 737 mmHg 69%
    04:00 +17°C° 0 mm 2 mps 737 mmHg 69%
    05:00 +17°C° 0 mm 2 mps 737 mmHg 70%
    06:00 +17°C° 0 mm 2 mps 737 mmHg 66%
    07:00 +18°C° 0 mm 2 mps 737 mmHg 63%
    08:00 +19°C° 0 mm 2 mps 738 mmHg 59%
    09:00 +21°C° 0 mm 3 mps 738 mmHg 52%
    10:00 +22°C° 0 mm 3 mps 738 mmHg 44%
    11:00 +24°C° 0 mm 3 mps 737 mmHg 37%
    12:00 +25°C° 0 mm 3 mps 737 mmHg 34%
    13:00 +26°C° 0 mm 3 mps 736 mmHg 32%
    14:00 +26°C° 0 mm 3 mps 736 mmHg 30%
    15:00 +25°C° 0 mm 3 mps 736 mmHg 33%
    16:00 +25°C° 0 mm 3 mps 736 mmHg 36%
    17:00 +24°C° 0 mm 3 mps 736 mmHg 39%
    18:00 +22°C° 0 mm 3 mps 736 mmHg 43%
    19:00 +21°C° 0 mm 3 mps 736 mmHg 47%
    20:00 +20°C° 0 mm 3 mps 736 mmHg 51%
    21:00 +20°C° 0 mm 3 mps 736 mmHg 50%
    22:00 +19°C° 0 mm 3 mps 736 mmHg 49%
    23:00 +19°C° 0 mm 3 mps 736 mmHg 48%

    18 November, Sunday

    Time Temperature Precipitation Wind Pressure Humidity
    00:00 +18°C° 0 mm 3 mps 736 mmHg 46%
    01:00 +18°C° 0 mm 2 mps 735 mmHg 43%
    02:00 +18°C° 0 mm 2 mps 735 mmHg 40%
    03:00 +17°C° 0 mm 2 mps 735 mmHg 41%
    04:00 +17°C° 0 mm 2 mps 735 mmHg 42%
    05:00 +17°C° 0 mm 2 mps 735 mmHg 43%
    06:00 +18°C° 0 mm 2 mps 735 mmHg 40%
    07:00 +20°C° 0 mm 2 mps 736 mmHg 37%
    08:00 +21°C° 0 mm 2 mps 736 mmHg 34%
    09:00 +24°C° 0 mm 2 mps 736 mmHg 30%
    10:00 +25°C° 0 mm 2 mps 736 mmHg 26%
    11:00 +27°C° 0 mm 2 mps 736 mmHg 22%
    12:00 +27°C° 0 mm 2 mps 735 mmHg 21%
    13:00 +28°C° 0 mm 3 mps 735 mmHg 20%
    14:00 +29°C° 0 mm 3 mps 734 mmHg 19%
    15:00 +27°C° 0 mm 3 mps 734 mmHg 22%
    16:00 +26°C° 0 mm 3 mps 734 mmHg 25%
    17:00 +25°C° 0 mm 3 mps 734 mmHg 28%
    18:00 +24°C° 0 mm 3 mps 734 mmHg 32%
    19:00 +22°C° 0 mm 3 mps 734 mmHg 35%
    20:00 +21°C° 0 mm 2 mps 734 mmHg 39%
    21:00 +21°C° 0 mm 2 mps 734 mmHg 39%
    22:00 +20°C° 0 mm 2 mps 734 mmHg 38%
    23:00 +20°C° 0 mm 2 mps 733 mmHg 38%

    19 November, Monday

    Time Temperature Precipitation Wind Pressure Humidity
    00:00 +19°C° 0 mm 2 mps 733 mmHg 37%
    01:00 +19°C° 0 mm 2 mps 733 mmHg 35%
    02:00 +19°C° 0 mm 2 mps 733 mmHg 34%
    03:00 +18°C° 0 mm 2 mps 733 mmHg 32%
    04:00 +18°C° 0 mm 2 mps 733 mmHg 31%
    05:00 +18°C° 0 mm 2 mps 733 mmHg 30%
    06:00 +19°C° 0 mm 2 mps 733 mmHg 27%
    07:00 +21°C° 0 mm 2 mps 733 mmHg 23%
    08:00 +24°C° 0 mm 3 mps 734 mmHg 20%
    09:00 +25°C° 0 mm 3 mps 734 mmHg 18%
    10:00 +26°C° 0 mm 3 mps 734 mmHg 16%
    11:00 +28°C° 0 mm 4 mps 734 mmHg 14%
    12:00 +28°C° 0 mm 4 mps 733 mmHg 13%
    13:00 +29°C° 0 mm 4 mps 733 mmHg 12%
    14:00 +29°C° 0 mm 4 mps 732 mmHg 11%
    15:00 +28°C° 0 mm 4 mps 732 mmHg 14%
    16:00 +27°C° 0 mm 4 mps 732 mmHg 17%
    17:00 +25°C° 0 mm 4 mps 732 mmHg 20%
    18:00 +23°C° 0 mm 4 mps 733 mmHg 22%
    19:00 +22°C° 0 mm 3 mps 733 mmHg 24%
    20:00 +21°C° 0 mm 3 mps 733 mmHg 27%
    21:00 +21°C° 0 mm 3 mps 733 mmHg 27%
    22:00 +20°C° 0 mm 2 mps 733 mmHg 27%
    23:00 +19°C° 0 mm 2 mps 733 mmHg 28%
    Show more